Showing default

IRIDIUM 110, 43481

Orbit data source: Space-Track

IRIDIUM 110, 43481 is a payload satellite owned by Iridium (US) in LEO that was launched on Tue, 22 May 2018 UTC via an FALCON 9 launch vehicle from the Air Force Western Test Range (AFWTR). Payload-class satellites include a variety of spacecraft equipped with specific instruments for various scientific and technological missions. These include communications satellites like Starlink; space stations such as the ISS; scientific satellites like the Hubble; Earth observation satellites from companies like Planet Labs, Umbra, and HawkEye 360; GPS; miniature CubeSats for education and research; and military/defense satellites.

Loading next visibility...
Identifier
43481, 2018-047F
Orbit
LEO
Country
Flag of USUS
Related business
Manufacturer
OATK SSG Gilbert
Mission
Operational Commercial Communications
Bus & Motor
ELITEBUS, Unknown motor
Mass
860 kg wet, 700 kg dry
Launch date (UTC)
2018-05-22 (7 years ago)
Launch vehicle
FALCON 9
Launch site
Air Force Western Test Range (AFWTR)
Object type
Payload
Rocket body
Debris
Shape & HBR
Trap Box + 2 Pan, 4.7 m
Radar Cross Section
14.423 m², Large (>1 m²)

Expand to show TLE details & history
Last TLE update: 15 hours ago

TLE from 15 hours ago
0 IRIDIUM 110
1 43481U 18047F   25260.24983995  .00000053  00000-0  11896-4 0  9991
2 43481  86.4022 202.4159 0001848  93.0046 267.1362 14.34217733383354
Epoch: 2025-09-17T05:59Z
TLE epoch observation values (Epoch: 2025-09-17T05:59:46.171Z)
Latitude
0.00003°
Longitude
116.04503°
Altitude
780.785 km
Speed
7.463 km/s
True Right ascension
13h 29m 39s
True Declination
0° 00' 00"
Sunlit
Object was in daylight at epoch
Visualization orbit readout
Latitude
Unknown
Longitude
Unknown
Altitude
Unknown
Speed
Unknown
Apparent Right ascension
Unknown
Apparent Declination
Unknown
Sunlit
N/A
Visualization observer readout
Local Sidereal Time
14:13:09
Azimuth
Unknown
Elevation
Unknown
Doppler factor
Unknown
Orbital elements
Apogee altitude
775.953 km
Perigee altitude
773.31 km
Semi-major axis
7,152.769 km
Eccentricity
0.00018
Inclination
86.4022°
RAAN
202.4159°
Arg. of periapsis
93.0046°
True anomaly
267.11505°
Mean anomaly
267.1362°
Eccentric anomaly
267.12563°
Mean motion
3.58783 °/min
Orbital period
100.34 mins
BSTAR
0.000011896
Loading maneuver chart data...
Computing Atmospheric mass density...
Loading historical data...
Loading historical data...
Loading historical data...
Loading historical data...
Loading historical data...
Loading historical data...
Loading historical data...

Documentation

Showing up to 5 results
|